{"data":{"norad_id":55609,"intl_designator":"2023-020AS","name":"STARLINK-5719","alt_names":[],"object_type":"PAYLOAD","status":"ACTIVE","operator":null,"country":"US","launch_date":"2023-02-12","launch_site_code":"AFETR","launch_vehicle":null,"mission":null,"orbit_class":"UNKNOWN","rcs_meters":null,"size_class":null,"mass_kg":null,"dimensions":null,"purposes":["comms"],"wikipedia_slug":null,"has_3d_model":false,"image_url":null,"decayed_at":null,"tle_current":{"epoch":"2026-05-25T02:16:02.456832Z","epoch_age_seconds":66989,"freshness":"FRESH","line1":"1 55609U 23020AS  26145.09447288 -.00000326  00000+0 -23235-5 0  9994","line2":"2 55609  43.0029 282.8093 0001421 269.8775  90.1914 15.27577008180723","mean_motion":15.27577008,"eccentricity":0.0001421,"inclination_deg":43.0029,"raan_deg":282.8093,"arg_perigee_deg":269.8775,"mean_anomaly_deg":90.1914,"bstar":-2.3235e-6,"rev_number":18072,"period_min":94.266933349916,"perigee_km":482.0830793613,"apogee_km":484.03303099598,"semimajor_km":6861.1950551786,"source":"CELESTRAK","updated_at":"2026-05-25T13:38:17.843081Z"}}}